Wind_Speed
9 11 8 3 9 19 26 24 28 32 20 16 23 23 23 22 22 21 21 20 20 19 19 18 17 17 18 17 17 17 16 19 20
8 11 8 3 4 13 19 20 23 32 34 23 17 20 21 21 21 21 22 19 19 19 18 17 16 18 19 19 19 19 18 19 19
14 15 9 0 5 8 12 12 13 18 27 29 23 20 19 20 21 21 21 20 20 20 18 17 17 18 19 20 21 21 20 21 21
14 16 9 3 2 7 8 9 11 12 17 22 23 22 20 20 19 21 21 22 21 20 19 20 20 18 18 18 19 21 22 22 21
12 12 9 8 10 12 8 6 5 7 10 14 18 22 23 23 22 22 23 22 23 22 22 22 21 21 20 19 18 19 22 22 22
14 15 14 12 13 13 9 5 3 3 6 7 11 14 20 24 27 27 27 25 23 24 24 22 22 22 21 20 20 20 21 23 24
17 18 17 16 17 13 6 4 2 2 4 6 7 9 12 16 20 23 25 26 26 25 24 25 21 19 17 19 23 24 24 23 26
20 20 21 19 21 19 14 9 5 4 6 7 7 9 11 13 14 17 20 22 23 26 27 25 23 12 17 20 21 28 27 26 26
21 19 18 21 22 22 18 15 9 3 4 7 8 8 8 10 13 15 16 18 20 23 27 11 21 23 16 27 34 31 24 21 24
21 18 19 21 22 24 19 19 19 15 9 4 2 1 2 4 7 10 13 15 15 20 24 22 22 10 28 59 40 40 24 25 21
21 18 19 18 20 21 21 21 18 16 13 11 9 8 7 6 7 9 9 10 11 14 16 10 21 17 12 24 25 22 22 22 20
19 18 19 20 20 20 19 17 16 15 13 12 11 10 9 9 11 11 10 7 8 10 10 11 10 3 10 3 15 15 16 27 25
17 19 20 19 18 18 19 19 16 14 13 12 10 12 13 13 12 12 12 11 9 11 11 9 8 6 9 12 13 12 15 21 25
14 14 14 13 15 18 18 17 14 12 13 12 13 14 16 17 16 16 16 16 15 13 15 15 12 12 14 14 12 12 13 15 21
9 10 9 11 11 14 17 18 17 15 15 15 17 18 19 20 19 18 17 17 18 18 17 16 16 18 17 14 13 10 12 16 19
5 9 11 13 14 15 19 18 19 19 19 20 20 20 21 22 21 20 17 15 17 20 19 18 17 20 19 19 16 14 12 15 16
10 13 16 18 21 21 20 21 19 19 20 21 20 20 20 22 22 20 18 16 15 16 18 18 18 20 18 18 19 17 14 15 17
13 16 17 17 16 15 16 18 17 18 19 21 23 21 20 20 20 19 18 17 18 18 16 16 17 23 20 21 15 18 14 16 17
14 15 15 14 13 14 15 18 19 19 19 20 21 23 23 23 23 22 19 20 21 20 21 17 18 24 29 31 28 25 16 13 18
10 11 12 13 14 15 15 16 18 18 21 21 21 22 24 25 25 24 24 23 25 27 25 23 22 25 30 33 36 29 29 25 20
Wind_Direction
356 3 0 17 186 190 202 216 211 213 217 222 221 222 229 235 240 240 242 241 237 238 241 242 243 242 242 243 247 252 249 243 246
1 5 4 324 229 199 200 208 212 215 217 227 223 225 226 231 235 236 239 239 238 237 239 238 236 236 237 239 242 245 249 247 246
358 353 351 58 202 197 192 194 202 213 221 229 235 228 228 233 238 239 240 243 241 239 238 236 234 236 240 241 244 246 246 246 245
351 344 346 48 136 163 164 181 195 199 213 222 229 232 233 234 240 241 241 245 246 245 245 241 239 240 246 248 247 245 243 245 245
13 22 54 78 107 108 121 142 179 204 218 224 231 236 239 241 246 247 246 249 250 247 248 248 247 245 247 252 252 249 246 241 240
43 50 63 69 86 85 86 99 135 204 234 240 245 247 248 250 254 253 251 251 256 250 247 250 249 247 249 255 258 258 256 247 240
67 63 56 62 78 82 61 45 354 331 297 274 265 267 263 260 261 262 262 261 261 257 258 249 250 251 259 268 260 255 252 250 243
75 64 60 55 70 72 64 47 14 314 286 280 284 294 292 295 289 278 275 270 264 262 260 251 239 239 266 271 280 256 248 246 246
76 67 61 64 67 77 69 61 54 33 289 278 279 289 302 301 304 305 299 293 285 278 268 264 286 213 314 270 274 276 255 254 254
77 67 61 59 63 68 63 58 54 51 55 77 115 43 343 322 315 312 318 314 308 297 287 281 216 51 337 323 297 267 257 249 275
75 66 59 52 56 64 61 58 55 50 53 57 61 50 35 10 351 340 334 331 325 315 302 239 228 232 278 295 255 257 259 246 267
76 71 65 56 47 48 55 57 54 49 52 48 39 29 16 359 343 333 334 340 316 308 298 272 224 260 180 198 240 246 259 243 261
75 73 69 60 50 42 39 43 38 25 26 22 16 4 351 336 327 323 325 319 295 289 289 271 208 210 227 249 238 234 243 243 241
79 71 61 54 41 26 15 10 8 7 5 359 354 345 339 338 324 309 307 310 306 285 280 276 252 240 244 249 255 249 244 232 234
48 38 34 17 14 12 357 348 345 352 348 346 335 327 324 327 329 330 311 304 305 303 291 276 255 236 232 239 237 226 242 241 238
11 350 356 347 343 352 336 327 329 331 331 327 324 324 323 321 323 325 329 313 304 303 302 294 258 238 240 247 245 243 234 230 231
357 346 344 336 337 334 320 317 317 315 315 313 313 313 312 315 317 319 323 319 313 307 311 303 263 250 250 272 263 252 252 244 233
359 349 346 346 341 329 323 324 328 327 316 305 301 300 300 301 305 309 309 307 305 302 300 304 270 247 269 303 296 286 288 273 251
355 350 347 341 335 328 326 332 335 334 331 323 310 302 297 295 297 298 300 298 294 295 295 288 277 270 280 286 286 291 270 272 267
358 347 337 331 330 329 331 333 339 343 341 336 327 315 304 295 295 297 299 298 299 297 290 294 290 289 282 280 282 288 265 268 268
Height
1519 1516 1515 1515 1516 1519 1521 1524 1531 1535 1538 1542 1546 1549 1552 1556 1558 1559 1561 1563 1565 1566 1568 1569 1571 1571 1572 1573 1574 1575 1576 1577 1578
1520 1517 1514 1513 1514 1516 1518 1522 1525 1530 1535 1539 1542 1545 1548 1550 1553 1555 1556 1559 1561 1563 1565 1566 1567 1568 1568 1569 1570 1571 1572 1573 1574
1518 1516 1513 1512 1512 1513 1516 1519 1523 1527 1532 1535 1539 1541 1544 1547 1549 1551 1553 1555 1557 1559 1561 1563 1563 1564 1565 1565 1566 1567 1568 1569 1570
1520 1514 1512 1511 1511 1513 1515 1518 1522 1525 1528 1532 1535 1538 1541 1543 1545 1547 1549 1551 1553 1555 1557 1558 1559 1560 1561 1562 1563 1563 1563 1564 1566
1520 1515 1513 1512 1512 1513 1517 1520 1521 1524 1526 1529 1531 1533 1537 1539 1541 1543 1545 1546 1549 1551 1551 1552 1553 1556 1558 1558 1559 1560 1560 1559 1561
1521 1518 1516 1516 1515 1515 1518 1521 1521 1523 1525 1527 1529 1531 1533 1535 1536 1538 1539 1542 1544 1545 1545 1548 1549 1550 1552 1554 1555 1557 1557 1557 1558
1522 1521 1520 1517 1515 1515 1519 1520 1521 1522 1524 1525 1527 1528 1529 1529 1531 1532 1534 1537 1539 1540 1542 1545 1547 1548 1548 1549 1549 1549 1551 1552 1553
1523 1523 1521 1520 1517 1517 1519 1520 1520 1520 1520 1521 1523 1523 1524 1525 1527 1527 1529 1532 1533 1534 1537 1540 1542 1543 1544 1541 1542 1543 1543 1546 1548
1523 1525 1525 1522 1521 1518 1521 1520 1520 1518 1518 1518 1519 1521 1522 1522 1523 1523 1525 1527 1527 1529 1524 1521 1534 1529 1538 1544 1544 1541 1542 1543 1543
1527 1529 1526 1524 1524 1519 1522 1521 1518 1517 1516 1516 1517 1518 1518 1519 1519 1519 1521 1523 1523 1521 1521 1524 1520 1511 1528 1536 1532 1533 1535 1532 1528
1531 1533 1532 1532 1528 1527 1524 1522 1518 1520 1518 1518 1518 1518 1517 1517 1517 1517 1518 1519 1519 1518 1518 1519 1518 1521 1521 1515 1520 1523 1526 1528 1526
1534 1534 1533 1533 1533 1531 1526 1523 1522 1523 1522 1519 1518 1517 1517 1517 1516 1515 1514 1515 1514 1513 1513 1515 1517 1514 1505 1503 1506 1513 1513 1519 1519
1537 1534 1532 1533 1534 1534 1533 1528 1525 1524 1521 1519 1518 1517 1516 1514 1514 1512 1510 1510 1510 1508 1506 1506 1506 1504 1503 1503 1500 1498 1502 1506 1510
1537 1535 1534 1532 1530 1531 1532 1531 1527 1523 1520 1519 1517 1515 1513 1512 1511 1509 1507 1505 1504 1503 1501 1501 1499 1500 1500 1501 1500 1500 1499 1500 1504
1538 1537 1534 1532 1528 1526 1530 1530 1530 1523 1518 1517 1514 1511 1510 1509 1508 1506 1504 1502 1499 1498 1498 1497 1496 1495 1495 1495 1494 1493 1495 1497 1498
1535 1536 1533 1530 1527 1519 1525 1529 1527 1520 1514 1513 1510 1507 1506 1505 1504 1502 1501 1499 1497 1495 1494 1493 1492 1492 1493 1492 1492 1493 1490 1491 1493
1533 1532 1527 1527 1515 1515 1525 1526 1523 1517 1511 1508 1506 1504 1502 1500 1499 1497 1496 1495 1492 1491 1489 1488 1488 1489 1491 1492 1491 1492 1490 1487 1487
1529 1527 1523 1521 1522 1524 1524 1522 1518 1511 1505 1503 1501 1500 1499 1497 1495 1493 1491 1490 1488 1486 1486 1485 1484 1484 1485 1486 1487 1487 1487 1485 1485
1527 1526 1524 1524 1524 1524 1522 1516 1510 1506 1501 1499 1497 1495 1494 1492 1490 1489 1487 1485 1482 1482 1480 1481 1482 1481 1479 1478 1477 1479 1480 1480 1481
1528 1529 1527 1524 1522 1520 1516 1512 1506 1501 1497 1495 1493 1491 1490 1488 1486 1484 1482 1481 1478 1475 1474 1474 1475 1474 1473 1472 1470 1469 1471 1473 1475